Location: Muñoyerro
(40.7554°N, 4.8373°W)
Time: 16:50:03
(UTC+00:00)

Daily predictions for brighter satellites

Satellite Brightness Start Highest point End
(mag) Time Altitude Azimuth Time Altitude Azimuth Time Altitude Azimuth
IGS 5A 3.6 20:21:24 10° S 20:25:32 77° WSW 20:29:42 10° NNW
Cosmos 1300 4.2 20:23:02 10° NNE 20:25:56 20° ENE 20:28:49 10° SE
Cosmos 1943 Rocket 3.1 20:23:51 10° NW 20:29:15 47° WSW 20:34:34 10° S
OBJECT-B 3.4 20:27:20 10° SW 20:29:19 17° W 20:31:20 10° NW
Cosmos 1908 3.2 20:25:46 10° N 20:29:38 78° E 20:33:28 10° S
Cosmos 405 Rocket 3.7 20:30:12 10° SSW 20:34:05 52° WNW 20:38:02 10° N
Cosmos 1943 3.2 20:28:52 10° S 20:34:27 63° ESE 20:40:02 10° NNE
Sich 1 Rocket 4.1 20:30:56 10° NNW 20:35:27 64° W 20:39:59 10° S
Cosmos 1953 2.7 20:33:06 10° N 20:36:54 45° E 20:40:41 10° SSE
Cosmos 1603 3.8 20:32:52 10° S 20:38:26 59° ESE 20:44:03 10° NNE
Resurs 1-3 4.1 20:35:16 10° S 20:39:36 62° W 20:43:57 10° NNW
Lacrosse 5 4.4 20:37:51 10° NNW 20:40:35 14° NNE 20:43:19 10° NE
Cosmos 1745 Rocket 4.4 20:35:11 10° N 20:41:02 44° ENE 20:46:53 10° SSE
Cosmos 1975 Rocket 4.5 20:40:12 10° SE 20:43:37 22° E 20:47:02 10° NE
Intercosmos 25 4.0 20:43:07 10° NNW 20:46:13 44° W 20:49:25 10° SSW
Ariane Rocket 3.3 20:42:43 10° SSE 20:47:41 55° ENE 20:52:40 10° N
CARTOSAT-1 4.4 20:44:35 11° SE 20:48:23 35° ENE 20:52:19 10° N
H-2A R/B 2.3 20:45:25 10° N 20:49:47 78° WNW 20:54:13 10° SSW
X-37B 2.5 20:48:40 10° SSE 20:48:55 11° SSE 20:48:55 11° SSE
USA 308 3.2 20:47:27 10° NW 20:51:33 59° SW 20:55:11 13° SSE
USA 305 3.5 20:47:42 10° WNW 20:51:42 47° SW 20:55:21 12° SSE
Resurs 01 Rocket 1.6 20:47:40 10° SSE 20:52:05 85° ENE 20:56:33 10° NNW
Cosmos 292 Rocket 4.3 20:49:50 10° SSW 20:54:31 61° WNW 20:59:14 10° NNE
Lacrosse 4 Rocket 2.0 20:50:25 10° SW 20:54:32 61° WNW 20:58:36 10° NNE
Okean 2 Rocket 4.0 20:51:11 10° NNW 20:55:28 48° W 20:59:42 10° SSW
Tiangong 1.1 20:53:07 10° WSW 20:56:14 58° SSE 20:59:23 10° E
IRAS Rocket 4.3 20:50:49 10° NNE 20:56:22 60° ESE 21:01:51 10° S
Cosmos 2151 Rocket 4.5 20:54:39 10° NNW 20:59:01 51° W 21:03:23 10° SSW
DELTA 2 R/B (1) 3.6 20:53:38 10° W 20:59:14 75° S 21:04:45 10° ESE
FALCON 9 DEB 3.2 21:00:09 10° WSW 21:03:23 73° NW 21:06:39 10° NE
CZ-3 Stage 3 4.4 21:00:18 10° W 21:05:48 18° SW 21:08:17 10° S
Terra 3.4 21:02:52 12° ESE 21:05:56 22° ENE 21:09:31 10° NNE
Meteor 1-24 Rocket 4.3 21:06:09 14° SSE 21:10:02 34° E 21:14:48 10° NNE
Cosmos 2315 Rocket 4.4 21:05:12 10° SSE 21:11:07 47° E 21:17:07 10° NNE
USA 267 3.2 21:06:22 10° NE 21:12:51 63° SE 21:19:20 10° SW
Cosmos 1455 4.2 21:11:11 10° NE 21:13:21 15° ENE 21:14:42 13° E
Cosmos 2369 Rocket 2.7 21:09:05 10° NNW 21:14:32 55° WSW 21:19:53 11° S
Cosmos 1371 Rocket 4.5 21:11:06 11° SSE 21:15:36 39° ESE 21:20:28 10° NE
SL-24 R/B 4.0 21:12:36 15° SSE 21:16:05 82° ENE 21:20:27 10° N
Longmarch 3A Rocket 4.0 21:15:04 10° S 21:15:28 11° S 21:15:28 11° S
Spot 2 Rocket 4.1 21:15:27 18° SE 21:18:54 44° ENE 21:23:44 10° N
ERBS 2.2 21:16:51 10° NW 21:19:49 61° SW 21:21:15 27° SSE
ATLAS 3B CENTAUR R/B 4.4 21:09:15 10° W 21:21:19 36° SSW 21:27:49 18° SSE
ARIANE 5 R/B 4.1 21:23:37 16° ESE 21:25:51 24° ENE 21:29:24 10° NNE
SPOT 3 Rocket 3.5 21:22:41 17° SSE 21:26:41 81° ENE 21:31:54 10° NNW
Cosmos 2084 4.2 21:26:52 25° SE 21:27:19 25° ESE 21:30:32 10° ENE
Lacrosse 5 rocket 3.6 21:25:35 10° NNW 21:28:12 17° NNE 21:30:54 10° ENE
CZ-4B R/B 3.2 21:26:36 10° NNW 21:29:06 26° WNW 21:31:34 10° SW
Cosmos 1709 Rocket 4.0 21:24:43 10° N 21:30:54 68° E 21:35:24 20° SSE
Meteor 2-12 Rocket 4.4 21:25:39 10° N 21:31:45 90° E 21:36:41 16° S
Cosmos 2251 Rocket 3.7 21:26:59 10° NNW 21:32:18 70° WSW 21:36:18 18° S
Cosmos 1624 Rocket 4.1 21:32:53 14° S 21:37:19 58° ESE 21:42:27 10° NNE
ATLAS 2AS CENTAUR R/B 3.8 21:33:17 10° NNW 21:39:43 35° NE 21:44:51 14° ESE
GENESIS II 4.4 21:37:52 10° NNW 21:41:54 64° NE 21:43:39 31° SE
Cosmos 1190 Rocket 4.2 21:39:39 10° NNW 21:44:55 58° ENE 21:47:39 27° SE
USA 234 4.4 21:39:30 10° E 21:45:26 38° NNE 21:51:23 10° NW
NOSS 3-4 (A) 4.0 21:38:29 10° NW 21:45:38 78° WSW 21:51:03 23° SSE
NOSS 3-4 (C) 4.0 21:38:34 10° NW 21:45:44 78° WSW 21:51:05 23° SSE
USA 245 4.2 21:45:08 19° S 21:49:01 64° WSW 21:53:27 10° NNW
Meteor 2-10 Rocket 4.1 21:45:51 10° NNW 21:50:45 52° W 21:54:29 17° SSW
Atlas Centaur 2 3.1 21:47:57 10° SW 21:50:06 17° SSW 21:50:06 17° SSW
Cosmos 407 Rocket 3.5 21:46:52 10° NNW 21:52:04 80° WSW 21:54:51 28° S
Cosmos 1455 Rocket 3.0 21:48:07 10° N 21:52:28 79° W 21:54:41 28° S
SPOT 5 2.6 21:52:00 29° SSE 21:54:20 87° WSW 21:58:46 10° NNW
Cosmos 2056 Rocket 3.5 21:52:03 12° SSW 21:56:58 87° ESE 22:02:24 10° NNE
Meteor 2-5 Rocket 3.9 21:53:57 12° SSW 21:59:03 72° W 22:04:36 10° N
Cosmos 1025 Rocket 3.3 21:57:09 18° SSW 22:00:10 63° W 22:04:25 10° N
Cosmos 1271 Rocket 3.2 21:56:29 10° N 22:00:22 48° ENE 22:01:15 40° ESE
ERS-1 Rocket 3.0 22:04:36 30° S 22:07:08 76° WSW 22:12:11 10° NNW
USA 32 4.1 22:04:44 23° S 22:08:03 79° W 22:13:18 10° N
Cosmos 1420 Rocket 3.9 22:05:26 19° SSW 22:09:15 90° ENE 22:14:33 10° NNE
Cosmos 676 Rocket 4.2 22:06:08 10° NNW 22:11:25 60° ENE 22:13:24 36° SE
Cosmos 1607 4.0 22:08:14 10° SW 22:14:29 81° WNW 22:20:43 10° NNE
Cosmos 1536 Rocket 3.6 22:13:47 47° SE 22:14:42 58° E 22:18:57 10° NNE
Cosmos 1140 Rocket 4.2 22:10:26 10° NNW 22:15:23 45° WSW 22:17:57 25° SSW
CZ-2C R/B 4.2 22:16:33 10° N 22:21:05 57° WNW 22:23:59 21° SW
Helios 1A Rocket 3.9 22:19:57 28° SW 22:21:27 40° W 22:25:18 10° NNW
Lacrosse 5 3.1 22:20:17 10° NNW 22:24:57 35° NE 22:27:55 19° E
Cosmos 724 4.1 22:24:23 24° SSW 22:27:57 75° ESE 22:33:45 10° NE
SAR-Lupe-4 3.7 22:26:03 10° NNE 22:29:20 59° ENE 22:29:20 59° ENE
Cosmos 2184 Rocket 4.0 22:25:20 10° N 22:31:30 71° E 22:33:49 40° SSE
Cosmos 1954 Rocket 4.0 22:27:34 10° NNW 22:32:52 81° WSW 22:34:28 46° S
Tiangong 1.7 22:29:55 10° W 22:32:27 51° WNW 22:32:27 51° WNW
TSX-5 4.1 22:33:04 53° ESE 22:33:10 53° ESE 22:38:04 10° NE
Meteor 1-21 Rocket 4.4 22:35:49 43° SE 22:37:07 53° E 22:42:33 10° NNE
CSL-04 DEB 4.4 22:33:45 10° NNE 22:38:07 85° ESE 22:38:53 59° S
Cosmos 1703 3.0 22:38:48 80° ESE 22:38:53 81° E 22:42:45 10° N
Cosmos 2228 3.2 22:36:47 10° N 22:40:56 52° E 22:41:10 51° E
Terra 2.7 22:41:45 30° SW 22:43:24 40° W 22:47:54 10° NNW
Cosmos 1544 Rocket 4.4 22:39:31 10° NNW 22:43:35 41° W 22:44:45 33° SW
SAR-Lupe-1 4.1 22:41:34 10° N 22:45:07 70° WNW 22:45:12 70° W
DELTA 2 R/B (1) 4.1 22:40:11 10° W 22:45:21 39° SSW 22:45:29 39° SSW
ALOS 2 4.4 22:46:37 18° E 22:47:20 19° ENE 22:50:26 10° NNE
Cosmos 1455 3.3 22:45:29 10° NNW 22:48:56 34° W 22:49:28 33° WSW
Molniya-1 4.5 22:50:49 45° S 22:52:22 73° ESE 23:03:48 10° NE
Cosmos 1726 Rocket 4.4 22:49:35 10° N 22:53:34 35° ENE 22:53:36 35° ENE
USA 267 4.4 22:49:34 10° NE 22:55:40 43° NNW 23:01:46 10° W
Cosmos 1980 Rocket 4.3 22:52:05 10° N 22:55:58 18° NE 22:59:14 12° E
Cosmos 1331 Rocket 4.1 22:57:22 53° SE 22:57:49 55° ESE 23:03:00 10° NNE
RESURS DK-1 3.7 22:54:58 10° N 22:58:36 29° ENE 22:59:03 28° ENE
Cosmos 1452 Rocket 3.5 22:57:19 46° SSW 22:58:55 83° WNW 23:04:12 10° NNE
Cosmos 1697 Rocket 3.7 22:55:39 10° N 23:00:48 35° ENE 23:02:42 28° E
ARIANE 5 R/B 3.8 23:01:09 29° WSW 23:02:06 32° W 23:06:09 10° NNW
Spot 4 4.3 23:04:25 45° E 23:05:00 48° ENE 23:09:36 10° N
Lacrosse 5 rocket 1.3 23:03:40 10° NW 23:07:17 73° NW 23:07:17 73° NW
NOSS 2-1 (C) 4.1 23:02:58 10° NW 23:07:50 88° WSW 23:09:23 53° SSE
ADEOS Rocket 4.1 23:05:35 29° ESE 23:08:28 42° ENE 23:15:20 10° N
ASTEX 1 3.3 23:05:49 10° N 23:10:51 88° W 23:11:35 66° SSW
Cosmos 1110 Rocket 3.9 23:15:12 64° SSW 23:16:03 88° ESE 23:21:22 10° NNE
Meteor 2-1 Rocket 4.0 23:10:32 10° N 23:16:04 86° E 23:17:01 62° SSE
Cosmos 2058 Rocket 4.0 23:12:44 10° N 23:16:43 36° ENE 23:16:43 36° ENE
NOSS 2-1 (D) 4.2 23:13:18 10° NW 23:18:13 76° WSW 23:19:29 57° S
Cosmos 1892 Rocket 3.6 23:22:22 71° ENE 23:22:22 71° ENE 23:26:32 10° NNE
GP-B 3.0 23:18:42 10° N 23:23:05 86° NE 23:23:05 86° NE
Cosmos 1833 Rocket 2.6 23:26:16 56° SSW 23:27:31 84° WNW 23:33:10 10° NNE
Cosmos 1656 3.6 23:22:13 10° NNW 23:27:38 67° WSW 23:28:19 61° SSW
USA 234 3.2 23:26:11 49° SSE 23:28:06 76° SW 23:34:41 10° NW
ATLAS 2AS CENTAUR R/B 2.9 23:24:10 10° NW 23:30:56 54° WSW 23:32:16 46° SSW
Okean 1-7 Rocket 4.5 23:39:49 39° ENE 23:39:49 39° ENE 23:43:24 10° NNE
Cosmos 2082 Rocket 2.4 23:41:32 52° ESE 23:41:39 52° ESE 23:47:10 10° NNE
Cosmos 962 Rocket 4.4 23:37:09 10° N 23:43:22 81° W 23:44:40 58° S
Cosmos 1741 Rocket 4.3 23:41:54 10° NNW 23:47:04 52° WSW 23:47:22 51° WSW
BREEZE-M DEB (TANK) 4.2 23:40:33 10° WSW 23:54:29 75° NNW 23:58:22 10° NE
